Location: Braunsdorf
(50.7357°N, 11.9136°E)
Time: 09:24:10
(UTC+00:00)

Sich 1 - Pass Details

Date: 17 February 2020
Orbit: 595 x 624 km, 82.5° (Epoch: 10 April)

Event Time Altitude Azimuth Distance (km) Brightness Sun altitude
Rises 04:53:58 0° 350° (N) 2,853 6.4 -14.5°
Reaches altitude 10° 04:56:11 10° 352° (N) 1,947 5.5 -14.2°
Maximum altitude 05:00:29 78° 79° (ENE) 619 3.1 -13.5°
Drops below altitude 10° 05:04:47 10° 166° (SSE) 1,940 5.8 -12.8°
Sets 05:06:59 0° 168° (SSE) 2,842 6.7 -12.4°
